Latest Weather Observations for Gabo Island

IDV60801

Issued at 3:31 pm EDT Sunday 1 March 2015 (issued every 30 minutes, with the page automatically refreshed every 10 minutes)

About weather observations | Map of weather stations | Latest weather observations for VIC | Other Formats
Station Details ID: 084016 Name: GABO ISLAND LIGHTHOUSE Lat: -37.57 Lon: 149.92 Height: 15.2 m
Data from the previous 72 hours. | See also: Recent months at Gabo Island
Date/Time
EDT
Temp
°C
App
Temp
°C
Dew
Point
Rel
Hum
%
Delta-T
°C
Wind Press
QNH
hPa
Press
MSL
hPa
Rain
since 9 am
mm
Dir
 
Spd
km/h
Gust
km/h
Spd
kts
Gust
kts
01/03:30pm 19.1 9.6 12.3 64 3.8 WSW 54 65 29 35 1011.4 - 0.8
01/03:00pm 18.9 9.2 11.8 63 3.9 SW 54 67 29 36 1011.5 1011.3 0.8
01/02:30pm 18.7 8.2 12.4 67 3.5 SW 59 69 32 37 1011.0 - 0.8
01/02:00pm 19.1 9.7 12.7 66 3.6 SW 54 67 29 36 1010.5 - 0.8
01/01:30pm 18.5 9.2 13.2 71 3.0 SW 54 72 29 39 1010.6 - 0.8
01/01:21pm 18.2 9.6 12.9 71 3.0 SW 50 63 27 34 1010.6 - 0.8
01/01:00pm 17.9 12.6 14.1 78 2.2 WSW 35 44 19 24 1010.6 - 0.8
01/12:30pm 17.4 12.7 14.3 82 1.8 WSW 32 41 17 22 1010.4 - 0.8
01/12:00pm 17.1 11.6 14.7 86 1.4 WSW 37 43 20 23 1010.6 1010.4 0.8
01/11:30am 17.1 11.4 15.2 88 1.1 SW 39 46 21 25 1010.1 - 0.8
01/11:00am 17.2 11.1 15.1 87 1.2 WSW 41 50 22 27 1009.7 - 0.8
01/10:30am 17.1 10.1 15.4 90 1.0 SW 46 57 25 31 1008.7 - 0.8
01/10:00am 17.4 9.9 16.0 91 0.8 SW 50 61 27 33 1008.1 - 0.8
01/09:39am 18.3 12.1 17.3 94 0.6 SW 46 52 25 28 1006.9 - 0.4
01/09:30am 18.5 17.0 17.7 95 0.5 WSW 22 26 12 14 1007.7 - 0.2
01/09:00am 18.5 16.5 17.5 94 0.6 SW 24 30 13 16 1006.7 1006.0 1.0
01/08:30am 18.9 17.0 17.6 92 0.8 WSW 24 32 13 17 1007.6 - 0.4
01/08:29am 19.0 17.1 17.7 92 0.8 WSW 24 30 13 16 1007.4 - 0.4
01/08:00am 19.0 20.4 17.7 92 0.8 SSW 7 11 4 6 1005.4 - 0.4
01/07:30am 18.9 19.4 17.4 91 0.9 SSW 11 17 6 9 1005.3 - 0.2
01/07:20am 19.3 20.6 17.5 89 1.1 N 7 11 4 6 1005.7 - 0.2
01/07:00am 19.2 20.0 17.4 89 1.1 N 9 11 5 6 1003.6 - 0.0
01/06:30am 19.7 21.0 17.2 85 1.5 WNW 6 7 3 4 1002.9 - 0.0
01/06:00am 19.6 21.0 17.3 86 1.4 WNW 6 9 3 5 1002.8 1002.6 0.0
01/05:30am 19.7 18.9 17.2 85 1.5 WSW 17 20 9 11 1003.8 - 0.0
01/05:00am 19.8 17.2 17.7 88 1.3 WSW 28 32 15 17 1004.1 - 0.0
01/04:30am 20.3 17.3 17.7 85 1.6 WSW 30 35 16 19 1004.1 - 0.0
01/04:00am 21.2 18.4 16.4 74 2.9 WSW 26 33 14 18 1003.7 - 0.0
01/03:30am 21.7 19.2 17.0 74 2.9 WSW 26 32 14 17 1003.4 - 0.0
01/03:00am 22.2 21.1 19.5 85 1.7 W 24 35 13 19 1002.9 1002.9 0.0
01/02:53am 21.4 21.0 19.0 86 1.5 WSW 19 32 10 17 1003.0 - 0.0
01/02:30am 20.3 22.4 18.9 92 0.9 NNW 6 17 3 9 1001.0 - 0.0
01/02:00am 20.2 18.0 18.8 92 0.9 NNE 28 35 15 19 1001.1 - 0.0
01/01:30am 20.4 15.3 18.6 89 1.1 NNE 43 48 23 26 1001.2 - 0.0
01/01:00am 20.4 19.5 19.0 92 0.9 NNE 22 35 12 19 1002.3 - 0.0
01/12:30am 20.9 21.0 19.2 90 1.1 N 17 26 9 14 1003.1 - 0.0
01/12:00am 20.9 16.9 19.3 90 1.0 NNE 39 44 21 24 1002.9 1002.8 0.0
 
Date/Time
EDT
Temp
°C
App
Temp
°C
Dew
Point
Rel
Hum
%
Delta-T
°C
Wind Press
QNH
hPa
Press
MSL
hPa
Rain
since 9 am
mm
Dir
 
Spd
km/h
Gust
km/h
Spd
kts
Gust
kts
28/11:30pm 20.9 16.8 19.2 90 1.1 NE 39 46 21 25 1003.3 - 0.0
28/11:00pm 20.9 17.6 19.2 90 1.1 NNE 35 43 19 23 1004.3 - 0.0
28/10:30pm 21.2 17.8 19.0 87 1.4 NNE 35 41 19 22 1004.7 - 0.0
28/10:00pm 21.3 17.8 18.8 86 1.6 NNE 35 43 19 23 1005.1 - 0.0
28/09:30pm 21.5 18.3 18.6 83 1.8 NNE 33 41 18 22 1005.4 - 0.0
28/09:00pm 21.4 19.1 18.5 83 1.8 NNE 28 35 15 19 1005.5 1005.4 0.0
28/08:30pm 20.9 19.7 18.3 85 1.6 NNE 22 26 12 14 1005.9 - 0.0
28/08:00pm 21.0 20.4 18.4 85 1.6 NNE 19 22 10 12 1005.9 - 0.0
28/07:30pm 21.3 20.1 18.3 83 1.9 NNE 22 26 12 14 1005.6 - 0.0
28/07:00pm 22.0 20.6 18.7 81 2.1 NNE 24 28 13 15 1005.5 - 0.0
28/06:30pm 22.5 20.8 18.9 80 2.3 NNE 26 32 14 17 1005.3 - 0.0
28/06:00pm 22.5 19.6 18.9 80 2.3 NNE 32 35 17 19 1005.2 1005.0 0.0
28/05:30pm 22.8 20.7 19.0 79 2.4 NNE 28 33 15 18 1005.2 - 0.0
28/05:00pm 22.8 20.3 18.9 78 2.5 NNE 30 33 16 18 1005.1 - 0.0
28/04:30pm 22.8 20.3 18.9 78 2.5 NNE 30 33 16 18 1005.2 - 0.0
28/04:00pm 23.0 20.8 18.6 76 2.8 NNE 28 33 15 18 1005.3 - 0.0
28/03:30pm 22.5 20.1 18.2 76 2.7 NNE 28 32 15 17 1005.5 - 0.0
28/03:00pm 22.1 19.0 18.3 79 2.4 NNE 32 35 17 19 1005.6 1005.4 0.0
28/02:30pm 22.7 18.9 18.1 75 2.9 NNE 35 41 19 22 1005.8 - 0.0
28/02:00pm 23.1 19.8 18.3 74 3.0 NNE 33 37 18 20 1006.0 - 0.0
28/01:30pm 22.7 20.1 18.7 78 2.5 NNE 30 35 16 19 1006.4 - 0.0
28/01:00pm 22.8 19.8 18.7 77 2.6 NNE 32 41 17 22 1006.6 - 0.0
28/12:30pm 21.7 16.6 19.0 84 1.7 NE 44 50 24 27 1005.8 - 0.0
28/12:00pm 22.1 18.8 19.3 84 1.8 NNE 35 43 19 23 1007.2 1007.0 0.0
28/11:30am 22.0 19.0 19.0 83 1.9 NNE 33 46 18 25 1007.3 - 0.0
28/11:00am 22.2 19.3 18.9 81 2.1 NE 32 41 17 22 1007.4 - 0.0
28/10:30am 22.2 19.4 19.0 82 2.0 NE 32 43 17 23 1008.0 - 0.0
28/10:00am 22.2 20.7 19.4 84 1.8 NE 26 30 14 16 1008.5 - 0.0
28/09:30am 21.8 21.3 19.1 84 1.7 NNE 20 24 11 13 1008.9 - 0.0
28/09:00am 20.2 21.8 17.8 86 1.5 NNE 6 11 3 6 1009.0 1008.8 0.0
28/08:30am 19.6 22.1 17.3 86 1.4 CALM 0 0 0 0 1009.1 - 0.0
28/08:00am 18.8 19.8 16.8 88 1.2 W 7 11 4 6 1009.2 - 0.0
28/07:30am 18.7 21.0 16.7 88 1.2 CALM 0 0 0 0 1009.1 - 0.0
28/07:00am 18.3 20.3 16.1 87 1.3 CALM 0 0 0 0 1009.0 - 0.0
28/06:30am 18.1 20.1 15.9 87 1.3 CALM 0 0 0 0 1008.8 - 0.0
28/06:00am 18.4 20.3 15.7 84 1.6 CALM 0 0 0 0 1008.9 1008.8 0.0
28/05:30am 18.3 20.1 15.6 84 1.6 CALM 0 0 0 0 1008.9 - 0.0
28/05:00am 18.0 19.8 15.4 85 1.5 CALM 0 0 0 0 1009.0 - 0.0
28/04:30am 18.1 19.8 15.2 83 1.7 CALM 0 0 0 0 1009.2 - 0.0
28/04:00am 18.0 18.6 15.4 85 1.5 NW 6 7 3 4 1009.4 - 0.0
28/03:30am 17.9 18.3 15.2 84 1.6 WSW 7 7 4 4 1009.8 - 0.0
28/03:00am 17.8 17.9 15.4 86 1.4 WSW 9 9 5 5 1010.0 1010.0 0.0
28/02:30am 18.1 18.7 15.9 87 1.3 SW 7 9 4 5 1010.2 - 0.0
28/02:00am 18.4 18.6 15.7 84 1.6 SW 9 9 5 5 1010.4 - 0.0
28/01:30am 18.5 19.2 15.6 83 1.7 SW 6 7 3 4 1010.5 - 0.0
28/01:00am 18.3 18.3 15.2 82 1.8 W 9 11 5 6 1010.8 - 0.0
28/12:30am 18.0 18.3 14.9 82 1.8 W 7 11 4 6 1010.8 - 0.0
28/12:00am 18.4 17.5 14.8 79 2.1 W 13 13 7 7 1010.8 1010.8 0.0
 
Date/Time
EDT
Temp
°C
App
Temp
°C
Dew
Point
Rel
Hum
%
Delta-T
°C
Wind Press
QNH
hPa
Press
MSL
hPa
Rain
since 9 am
mm
Dir
 
Spd
km/h
Gust
km/h
Spd
kts
Gust
kts
27/11:30pm 18.4 17.9 14.8 79 2.1 W 11 11 6 6 1011.1 - 0.0
27/11:00pm 18.3 17.9 15.2 82 1.8 WSW 11 11 6 6 1011.0 - 0.0
27/10:30pm 18.2 18.5 15.1 82 1.8 WSW 7 9 4 5 1010.5 - 0.0
27/10:00pm 18.5 18.1 15.3 81 1.9 W 11 11 6 6 1011.0 - 0.0
27/09:30pm 18.6 18.7 15.5 82 1.8 W 9 11 5 6 1010.9 - 0.0
27/09:00pm 18.7 18.2 14.9 78 2.2 WNW 11 13 6 7 1011.1 1011.0 0.0
27/08:30pm 18.5 18.3 14.7 78 2.2 NW 9 13 5 7 1010.7 - 0.0
27/08:00pm 18.9 18.8 15.9 83 1.8 SW 11 17 6 9 1010.6 - 0.0
27/07:30pm 18.8 18.3 15.9 83 1.7 WSW 13 15 7 8 1010.4 - 0.0
27/07:00pm 19.4 18.2 15.1 76 2.5 SSW 15 17 8 9 1009.9 - 0.0
27/06:30pm 19.7 17.8 15.7 78 2.4 SSW 20 22 11 12 1010.1 - 0.0
27/06:00pm 19.6 17.7 15.7 78 2.3 SSW 20 26 11 14 1009.9 1009.8 0.0
27/05:30pm 19.5 17.8 16.3 82 1.9 SSW 20 22 11 12 1009.7 - 0.0
27/05:00pm 20.7 19.3 16.6 77 2.5 S 19 24 10 13 1009.2 - 0.0
27/04:30pm 21.5 20.6 16.9 75 2.8 S 17 20 9 11 1009.2 - 0.0
27/04:00pm 22.2 22.5 15.1 64 4.2 E 7 11 4 6 1009.2 - 0.0
27/03:30pm 22.1 21.2 15.8 67 3.8 E 15 17 8 9 1009.2 - 0.0
27/03:00pm 21.0 21.2 16.7 76 2.6 SSE 11 13 6 7 1009.5 1009.4 0.0
27/02:30pm 21.5 21.5 17.3 77 2.6 S 13 13 7 7 1009.9 - 0.0
27/02:00pm 21.2 22.2 16.9 76 2.6 SSE 7 9 4 5 1009.9 - 0.0
27/01:30pm 21.4 21.9 16.6 74 2.9 ESE 9 13 5 7 1010.1 - 0.0
27/01:00pm 20.9 21.5 16.8 77 2.5 SSE 9 13 5 7 1010.5 - 0.0
27/12:30pm 20.3 19.9 16.3 78 2.4 S 13 15 7 8 1011.0 - 0.0
27/12:00pm 19.7 18.9 16.0 79 2.2 S 15 17 8 9 1011.1 1011.0 0.0
27/11:30am 19.8 19.5 15.4 76 2.6 SSW 11 15 6 8 1011.2 - 0.0
27/11:00am 19.2 18.6 14.6 74 2.7 SSW 11 13 6 7 1011.2 - 0.0
27/10:30am 19.5 19.1 14.1 71 3.1 WSW 9 13 5 7 1011.0 - 0.0
27/10:00am 19.8 19.2 14.5 71 3.1 W 11 15 6 8 1010.9 - 0.0
27/09:30am 18.8 17.6 14.1 74 2.7 W 13 17 7 9 1010.9 - 0.0
27/09:00am 18.8 17.8 14.7 77 2.4 W 13 17 7 9 1010.4 1010.2 0.0
27/08:30am 18.5 17.4 14.3 76 2.4 WNW 13 17 7 9 1010.3 - 0.0
27/08:00am 17.4 16.3 14.4 82 1.7 WNW 13 17 7 9 1010.4 - 0.0
27/07:30am 17.0 16.1 14.9 87 1.2 WNW 13 17 7 9 1010.3 - 0.0
27/07:00am 16.4 14.7 12.5 78 2.2 WNW 13 15 7 8 1010.1 - 0.0
27/06:30am 15.7 14.7 13.4 86 1.3 WNW 11 15 6 8 1009.8 - 0.0
27/06:00am 16.5 16.1 15.3 93 0.7 WNW 11 15 6 8 1009.9 1009.8 0.0
27/05:30am 16.8 15.7 15.3 91 0.9 W 15 17 8 9 1009.9 - 0.0
27/05:00am 16.8 15.6 15.1 90 1.0 W 15 19 8 10 1010.0 - 0.0
27/04:30am 17.2 15.1 15.1 87 1.2 W 20 24 11 13 1009.8 - 0.0
27/04:00am 17.2 14.7 15.1 87 1.2 W 22 28 12 15 1009.9 - 0.0
27/03:30am 17.1 15.0 15.2 88 1.1 W 20 28 11 15 1010.0 - 0.0
27/03:00am 17.3 14.7 14.9 86 1.4 W 22 28 12 15 1010.2 1010.1 0.0
27/02:30am 17.4 15.3 15.2 87 1.3 WSW 20 26 11 14 1010.1 - 0.0
27/02:00am 17.3 15.1 14.9 86 1.4 W 20 26 11 14 1010.3 - 0.0
27/01:30am 17.2 15.6 15.0 87 1.3 W 17 20 9 11 1010.6 - 0.0
27/01:00am 17.4 15.7 14.8 85 1.5 W 17 20 9 11 1010.9 - 0.0
27/12:30am 17.5 15.6 15.1 86 1.4 W 19 22 10 12 1011.0 - 0.0
27/12:00am 17.8 16.1 14.7 82 1.8 W 17 22 9 12 1011.0 1010.9 0.0
 
Date/Time
EDT
Temp
°C
App
Temp
°C
Dew
Point
Rel
Hum
%
Delta-T
°C
Wind Press
QNH
hPa
Press
MSL
hPa
Rain
since 9 am
mm
Dir
 
Spd
km/h
Gust
km/h
Spd
kts
Gust
kts
26/11:30pm 17.9 15.8 14.6 81 1.9 W 19 22 10 12 1010.9 - 0.0
26/11:00pm 18.2 16.1 14.8 80 2.0 W 19 20 10 11 1011.0 - 0.0
26/10:30pm 18.3 16.2 14.7 79 2.1 W 19 20 10 11 1011.0 - 0.0
26/10:00pm 18.4 16.2 14.8 79 2.1 W 20 22 11 12 1010.9 - 0.0
26/09:30pm 17.8 16.0 15.6 87 1.3 W 19 24 10 13 1010.7 - 0.0
26/09:00pm 18.2 15.5 15.7 85 1.5 SW 24 26 13 14 1010.1 1010.0 0.0
26/08:30pm 18.4 15.7 15.7 84 1.6 SW 24 28 13 15 1009.6 - 0.0
26/08:00pm 18.7 14.4 15.5 81 1.9 SW 32 35 17 19 1009.0 - 0.0
26/07:30pm 18.8 15.8 15.8 83 1.8 SW 26 32 14 17 1008.8 - 0.0
26/07:00pm 19.0 16.1 16.0 83 1.8 SW 26 32 14 17 1008.5 - 0.0
26/06:30pm 19.2 15.2 16.2 83 1.8 SW 32 35 17 19 1008.3 - 0.0
26/06:00pm 19.2 14.5 15.8 81 2.0 SW 35 41 19 22 1008.1 1008.0 0.0
26/05:30pm 19.1 13.3 15.9 82 1.9 SW 41 48 22 26 1008.1 - 0.0
26/05:00pm 19.2 13.4 16.0 82 1.9 SSW 41 48 22 26 1007.8 - 0.0
26/04:30pm 19.5 14.1 16.0 80 2.1 SW 39 44 21 24 1007.8 - 0.0
26/04:00pm 19.1 13.3 15.9 82 1.9 SW 41 46 22 25 1007.7 - 0.0

Other Formats:

Comma delimited format used in spreadsheet applications
http://www.bom.gov.au/fwo/IDV60801/IDV60801.94933.axf

JavaScript Object Notation format (JSON) in row-major order
http://www.bom.gov.au/fwo/IDV60801/IDV60801.94933.json